DeKalb, IL

5:13 AM CST on November 22, 2019 (GMT -0600)
De Kalb Taylor Municipal

Weather History for KDKB - October, 2019

Change the Weather History Date:

Sunday, October 20, 2019

  Actual Average (WUND) Record (WUND)
Temperature  
Mean Temperature 56 °F -  
Max Temperature 66 °F - - (-1)
Min Temperature 46 °F - - (-1)
Degree Days  
Heating Degree Days 9    
Growing Degree Days 6 (Base 50)    
Moisture  
Dew Point 46 °F    
Average Humidity 79    
Maximum Humidity 100    
Minimum Humidity 39    
Precipitation  
Precipitation 0.00 in - - ()
Sea Level Pressure  
Sea Level Pressure 29.88 in    
Wind  
Wind Speed 6 mph (NE)    
Max Wind Speed 13 mph    
Max Gust Speed 17 mph    
Visibility 9 miles    
Events      
Averages and records for this station are not official NWS values.
T = Trace of Precipitation, MM = Missing Value Source: NWS Daily Summary

Daily Weather History Graph

Daily Weather History Graph

Search for Another Location

Airport or City:

Astronomy

Oct. 20, 2019 Rise Set
Actual Time 7:12 AM CDT 6:05 PM CDT
Civil Twilight 6:44 AM CDT 6:34 PM CDT
Nautical Twilight 6:11 AM CDT 7:06 PM CDT
Astronomical Twilight 5:39 AM CDT 7:38 PM CDT
Moon 11:10 PM CDT (10/20) 1:44 PM CDT (10/20)
Length of Visible Light 11h 49m
Length of Day
10h 53m
Waning Gibbous, 59% of the Moon is Illuminated
Oct 20
Waning Gibbous
Oct 21
Last Quarter
Oct 27
New
Nov 4
First Quarter
Nov 12
Full

Hourly Weather History & Observations

Time (CDT) Temp. Dew Point Humidity Pressure Visibility Wind Dir Wind Speed Gust Speed Precip Events Conditions
12:15 AM 53.1 °F 50.9 °F 92% 29.79 in 10.0 mi WNW 5.8 mph - N/A   Overcast
12:35 AM 53.1 °F 50.9 °F 92% 29.79 in 10.0 mi WNW 5.8 mph - N/A   Overcast
12:55 AM 53.1 °F 51.1 °F 93% 29.79 in 10.0 mi West 6.9 mph - N/A   Overcast
1:15 AM 52.7 °F 51.1 °F 94% 29.79 in 10.0 mi WNW 8.1 mph - N/A   Overcast
1:35 AM 52.3 °F 51.1 °F 95% 29.79 in 10.0 mi WNW 6.9 mph - N/A   Overcast
1:55 AM 52.0 °F 50.9 °F 96% 29.80 in 10.0 mi WNW 5.8 mph - N/A   Overcast
2:15 AM 51.4 °F 50.5 °F 97% 29.79 in 10.0 mi WNW 5.8 mph - N/A   Overcast
2:35 AM 51.3 °F 50.4 °F 97% 29.80 in 7.0 mi WNW 8.1 mph - N/A   Overcast
2:55 AM 51.1 °F 50.2 °F 97% 29.81 in 7.0 mi WNW 5.8 mph - N/A   Overcast
3:15 AM 51.3 °F 50.4 °F 97% 29.82 in 7.0 mi WNW 6.9 mph - N/A   Overcast
3:35 AM 51.3 °F 50.5 °F 97% 29.82 in 7.0 mi WNW 10.4 mph - N/A   Overcast
3:55 AM 50.9 °F 49.8 °F 96% 29.83 in 10.0 mi NW 5.8 mph - N/A   Overcast
4:15 AM 50.9 °F 49.3 °F 94% 29.83 in 10.0 mi NNW 5.8 mph - N/A   Overcast
4:35 AM 50.0 °F 48.4 °F 94% 29.83 in 10.0 mi NNW 4.6 mph - N/A   Overcast
4:55 AM 48.4 °F 47.5 °F 97% 29.83 in 10.0 mi Calm Calm - N/A   Scattered Clouds
5:15 AM 47.3 °F 47.3 °F 100% 29.84 in 10.0 mi Calm Calm - N/A   Scattered Clouds
5:35 AM 46.6 °F 46.6 °F 100% 29.85 in 7.0 mi NW 3.5 mph - N/A   Mostly Cloudy
5:55 AM 46.4 °F 46.4 °F 100% 29.86 in 7.0 mi Calm Calm - N/A   Mostly Cloudy
6:15 AM 48.6 °F 48.6 °F 100% 29.87 in 10.0 mi NW 4.6 mph - N/A   Overcast
6:35 AM 48.7 °F 48.2 °F 98% 29.88 in 10.0 mi NNW 6.9 mph - N/A   Overcast
6:55 AM 48.6 °F 47.5 °F 96% 29.88 in 10.0 mi NNW 5.8 mph - N/A   Overcast
7:15 AM 48.2 °F 46.8 °F 95% 29.88 in 10.0 mi NNW 6.9 mph - N/A   Overcast
7:35 AM 47.5 °F 46.4 °F 96% 29.89 in 10.0 mi NNW 5.8 mph - N/A   Overcast
7:55 AM 47.5 °F 46.6 °F 97% 29.89 in 10.0 mi NNW 6.9 mph - N/A   Overcast
8:15 AM 47.7 °F 46.9 °F 97% 29.91 in 10.0 mi North 6.9 mph - N/A   Overcast
8:35 AM 47.8 °F 47.1 °F 97% 29.92 in 10.0 mi NNW 5.8 mph - N/A   Overcast
8:55 AM 47.7 °F 46.9 °F 97% 29.94 in 10.0 mi NNW 5.8 mph - N/A   Overcast
9:15 AM 48.4 °F 47.3 °F 96% 29.94 in 10.0 mi NNW 4.6 mph - N/A   Overcast
9:35 AM 50.2 °F 48.4 °F 94% 29.94 in 10.0 mi NW 3.5 mph - N/A   Mostly Cloudy
9:55 AM 51.1 °F 48.0 °F 89% 29.94 in 10.0 mi Calm Calm - N/A   Scattered Clouds
10:15 AM 52.3 °F 47.1 °F 82% 29.94 in 10.0 mi Calm Calm - N/A   Clear
10:35 AM 54.1 °F 47.3 °F 78% 29.94 in 10.0 mi Calm Calm - N/A   Clear
10:55 AM 55.8 °F 47.1 °F 73% 29.94 in 10.0 mi Calm Calm - N/A   Clear
11:15 AM 57.4 °F 46.8 °F 68% 29.94 in 10.0 mi NE 3.5 mph - N/A   Clear
11:35 AM 59.2 °F 46.4 °F 63% 29.93 in 10.0 mi Calm Calm - N/A   Clear
11:55 AM 61.2 °F 46.8 °F 59% 29.94 in 10.0 mi East 3.5 mph - N/A   Clear
12:15 PM 62.1 °F 45.3 °F 54% 29.93 in 10.0 mi East 5.8 mph - N/A   Clear
12:35 PM 63.3 °F 43.7 °F 49% 29.92 in 10.0 mi NE 6.9 mph - N/A   Clear
12:55 PM 64.4 °F 43.0 °F 46% 29.92 in 7.0 mi East 8.1 mph - N/A   Clear
1:15 PM 64.6 °F 42.1 °F 44% 29.92 in 10.0 mi ENE 5.8 mph - N/A   Clear
1:35 PM 65.5 °F 40.3 °F 40% 29.92 in 10.0 mi ESE 6.9 mph - N/A   Clear
1:55 PM 65.5 °F 40.1 °F 39% 29.92 in 10.0 mi ENE 5.8 mph - N/A   Clear
2:15 PM 65.7 °F 40.8 °F 40% 29.90 in 10.0 mi ESE 4.6 mph - N/A   Clear
2:35 PM 65.8 °F 41.5 °F 41% 29.90 in 10.0 mi East 10.4 mph - N/A   Clear
2:55 PM 65.8 °F 41.7 °F 41% 29.90 in 10.0 mi East 9.2 mph - N/A   Clear
3:15 PM 66.0 °F 43.2 °F 43% 29.90 in 10.0 mi East 11.5 mph - N/A   Clear
3:35 PM 65.1 °F 41.4 °F 42% 29.90 in 10.0 mi ESE 6.9 mph - N/A   Clear
3:55 PM 65.1 °F 40.5 °F 40% 29.90 in 10.0 mi East 10.4 mph - N/A   Clear
4:15 PM 64.8 °F 39.2 °F 39% 29.91 in 10.0 mi East 10.4 mph - N/A   Clear
4:35 PM 63.7 °F 39.9 °F 42% 29.91 in 10.0 mi East 6.9 mph - N/A   Clear
4:55 PM 62.8 °F 40.1 °F 43% 29.90 in 10.0 mi East 10.4 mph - N/A   Clear
5:15 PM 61.7 °F 40.5 °F 46% 29.90 in 10.0 mi East 8.1 mph - N/A   Clear
5:35 PM 58.6 °F 40.6 °F 51% 29.90 in 10.0 mi East 6.9 mph - N/A   Clear
5:55 PM 56.3 °F 40.5 °F 55% 29.90 in 10.0 mi East 6.9 mph - N/A   Clear
6:15 PM 55.4 °F 40.1 °F 56% 29.90 in 10.0 mi East 6.9 mph - N/A   Clear
6:35 PM 54.3 °F 40.6 °F 60% 29.91 in 10.0 mi East 5.8 mph - N/A   Clear
6:55 PM 54.1 °F 42.4 °F 65% 29.90 in 10.0 mi East 8.1 mph - N/A   Clear
7:15 PM 53.2 °F 43.9 °F 71% 29.91 in 10.0 mi East 6.9 mph - N/A   Clear
7:35 PM 52.9 °F 45.5 °F 76% 29.91 in 10.0 mi East 8.1 mph - N/A   Clear
7:55 PM 51.3 °F 46.0 °F 82% 29.91 in 10.0 mi ESE 6.9 mph - N/A   Clear
8:15 PM 51.1 °F 46.8 °F 85% 29.91 in 10.0 mi ESE 9.2 mph - N/A   Clear
8:35 PM 50.4 °F 47.1 °F 89% 29.90 in 10.0 mi East 6.9 mph - N/A   Clear
8:55 PM 49.5 °F 47.5 °F 93% 29.89 in 10.0 mi East 8.1 mph - N/A   Clear
9:15 PM 49.5 °F 47.8 °F 94% 29.89 in 7.0 mi East 9.2 mph - N/A   Clear
9:35 PM 48.9 °F 47.7 °F 95% 29.89 in 7.0 mi East 9.2 mph - N/A   Clear
9:55 PM 48.0 °F 47.3 °F 97% 29.90 in 7.0 mi East 8.1 mph - N/A   Clear
10:15 PM 47.8 °F 47.7 °F 99% 29.89 in 5.0 mi East 10.4 mph - N/A   Clear
10:35 PM 47.5 °F 47.5 °F 100% 29.89 in 3.0 mi East 10.4 mph - N/A   Clear
10:55 PM 47.5 °F 47.5 °F 100% 29.89 in 1.8 mi East 11.5 mph - N/A   Overcast
11:15 PM 48.2 °F 48.2 °F 100% 29.87 in 1.2 mi East 9.2 mph - N/A   Overcast
11:35 PM 48.6 °F 48.6 °F 100% 29.87 in 0.8 mi East 12.7 mph 17.3 mph N/A   Overcast
11:55 PM 48.9 °F 48.9 °F 100% 29.86 in 1.0 mi East 10.4 mph - N/A   Overcast